COSMOS 252 DEB *, 5322

Orbit data source: Space-Track

COSMOS 252 DEB *, 5322 is space debris in LEO originally from a launch on Fri, 01 Nov 1968 UTC launched from the Tyuratam Missile And Space Complex (TTMTR). Debris objects in space refer to the collection of defunct objects orbiting the Earth. Examples of debris include non-operational satellites, rocket bodies, and fragments generated from explosions, collisions, or faulty payload assembly.

Loading next visibility...
Identifier
5322, 1968-097CJ
Orbit
LEO
Country
Flag of CISCIS
Related business
Manufacturer
Unknown
Mission
Spacecraft
Bus & Motor
Unknown
Mass
Unknown
Launch date (UTC)
1968-11-01 (57 years ago)
Launch vehicle
Unknown
Launch site
Tyuratam Missile And Space Complex (TTMTR)
Object type
Payload
Rocket body
Debris
Shape & HBR
Unknown shape, 0.1 m
Radar Cross Section
Small (<0.1 m²)

Expand to show TLE details & history
Last TLE update: 10 hours ago

TLE from 10 hours ago
0 COSMOS 252 DEB *
1 05322U 68097CJ  25288.60928564  .00004129  00000-0  28328-2 0  9998
2 05322  61.3248   7.6691 0699051 205.2395 151.2867 13.20426505681523
Epoch: 2025-10-15T14:37Z
TLE epoch observation values (Epoch: 2025-10-15T14:37:22.279Z)
Latitude
-0.00003°
Longitude
123.94535°
Altitude
1,656.052 km
Speed
6.823 km/s
True Right ascension
00h 30m 40s
True Declination
0° 00' 00"
Sunlit
Object was in full shadow at epoch
Visualization orbit readout
Latitude
Unknown
Longitude
Unknown
Altitude
Unknown
Speed
Unknown
Apparent Right ascension
Unknown
Apparent Declination
Unknown
Sunlit
N/A
Visualization observer readout
Local Sidereal Time
19:00:53
Azimuth
Unknown
Elevation
Unknown
Doppler factor
Unknown
Orbital elements
Apogee altitude
1,710.694 km
Perigee altitude
653.683 km
Semi-major axis
7,560.326 km
Eccentricity
0.06991
Inclination
61.3248°
RAAN
7.6691°
Arg. of periapsis
205.2395°
True anomaly
154.85825°
Mean anomaly
151.2867°
Eccentric anomaly
153.09889°
Mean motion
3.30166 °/min
Orbital period
109.04 mins
BSTAR
0.0028328
Loading maneuver chart data...
Computing Atmospheric mass density...

Documentation

Showing up to 5 results
|